Flag for Germany Weather past 2 weeks in Pfaffenhofen an der Ilm, Bavaria, Germany

Now
64 °F

Fog.


Feels Like: 64 °F
Forecast: 58 / 75 °F
Wind: 3 mph from Northeast

Location: Ingolstadt Airport

Current Time: Jul 22, 2014 at 9:34:58 AM

Latest Report: Jul 22, 2014 at 8:20 AM


Visibility: 2 mi

Pressure: 29.86 "Hg

Humidity: 100%

Dew point: 64 °F

Location of Pfaffenhofen an der IlmLocation

Historic Weather in Pfaffenhofen an der Ilm — Graph

°F

Pfaffenhofen an der Ilm temperature yesterday

Maximum temperature yesterday: 70 °F (at 12:20 AM)
Minimum temperature yesterday: 63 °F (at 6:20 AM)
Average temperature yesterday: 66 °F

Past Weeks' High & Low Weather Summary

 TemperatureHumidityPressure
High90 °F (Jul 19, 4:20 PM)100% (Jul 8, 6:20 AM)30.18 "Hg (Jul 8, 6:20 AM)
Low54 °F (Jul 9, 6:00 AM)24% (Jul 19, 4:20 PM)29.74 "Hg (Jul 9, 6:00 AM)
Average67 °F72%29.95 "Hg
* Reported Jul 7 7:20 AM — Jul 22 7:20 AM, Pfaffenhofen an der Ilm, Weather by CustomWeather, © 2014

Note: Actual official high and low records may vary slightly from our data, if they occured in-between our weather recording intervals... More about our weather records

Advertising

Pfaffenhofen an der Ilm weather history for previous 24 hours

 ConditionsComfort  
Time TempWeatherWind HumidityBarometerVisibility
7:20 AM
Jul 22
64 °FFog.6 mph100%29.86 "Hg2 mi
7:02 AM64 °FFog.3 mph100%29.86 "Hg2 mi
6:20 AM64 °FDrizzle. Fog.2 mph100%29.83 "Hg2 mi
5:20 AM64 °FLight rain. Fog.2 mph94%29.83 "Hg2 mi
4:20 AM64 °FMild.No wind94%29.83 "Hg2 mi
3:20 AM64 °FMild.1 mph94%29.83 "Hg3 mi
2:20 AM64 °FMild.1 mph94%29.83 "Hg4 mi
1:20 AM63 °FMild.5 mph100%29.83 "Hg5 mi
12:20 AM63 °FMild.6 mph100%29.83 "Hg4 mi
11:20 PM
Jul 21
63 °FMild.6 mph100%29.86 "Hg3 mi
10:20 PM64 °FMild.7 mph94%29.86 "Hg1 mi
9:20 PM63 °FMild.13 mph100%29.83 "Hg1 mi
8:20 PM63 °FHeavy rain. Fog.12 mph100%29.86 "Hg2 mi
7:20 PM63 °FRain. Fog.9 mph100%29.86 "Hg2 mi
6:20 PM66 °FSprinkles. Mostly cloudy.12 mph83%29.86 "Hg5 mi
5:20 PM66 °FPartly sunny.10 mph88%29.86 "HgN/A
4:20 PM68 °FPartly sunny.6 mph83%29.86 "HgN/A
3:20 PM68 °FSprinkles. Broken clouds.6 mph78%29.86 "HgN/A
2:20 PM70 °FPartly sunny.7 mph73%29.89 "HgN/A
1:20 PM68 °FSprinkles. Broken clouds.6 mph78%29.89 "HgN/A
12:20 PM68 °FPartly sunny.14 mph78%29.89 "HgN/A
11:55 AM68 °FPartly sunny.13 mph78%29.89 "HgN/A
11:20 AM68 °FPartly sunny.13 mph78%29.89 "HgN/A
10:20 AM66 °FPartly sunny.14 mph83%29.89 "HgN/A
9:20 AM66 °FPartly sunny.15 mph83%29.89 "HgN/A
Weather by CustomWeather, © 2014

See weather overviewHow to use our weather pages